[[{"header":{"parameterUnit":"m.s-1","parameterCategory":1,"la1":30.2991,"la2":30.254,"lo1":-89.0895,"lo2":-89.0444,"dy":0.0017,"dx":0.0017,"nx":28,"ny":28,"refTime":"2024-06-20T03:00:00:Z","depth":0,"parameterNumber":2,"parameterNumberName":"U-component_of_WINDS"},"data":[0,0,0,0,0,0,0,0,0,0,0,0,0,0,0,0,0,0,0,0,0,0,0,0,0,0,0,0,0,0,0,0,0,0,0,0,0,0,0,0,0,0,0,0,0,0,0,0,0,0,0,0,0,0,0,0,0,0,-6.989,-6.9889,0,-6.9814,-6.9813,-6.9812,-6.9519,-6.9512,-6.9505,-6.9499,-6.9428,-6.9432,-6.9437,0,0,0,0,0,0,0,0,0,0,0,0,0,-6.9788,-6.9791,-6.989,-6.9889,-6.9888,-6.9814,-6.9813,-6.9812,-6.952,-6.9511,-6.9503,-6.9496,-6.9427,-6.9432,-6.9437,0,0,0,0,0,0,0,0,0,0,0,0,0,-6.9785,-6.9793,-6.989,-6.9733,-6.9718,-6.9814,-6.9813,-6.9811,-6.9521,-6.9511,-6.9501,-6.9492,-6.9425,-6.9431,-6.9438,-6.9681,0,0,-6.9458,-6.9461,0,0,0,0,0,0,0,0,-6.9785,-6.9789,-6.9757,-6.9744,-6.9727,-6.9665,-6.975,-6.9768,-6.9524,-6.9597,-6.9498,-6.9487,-6.9516,-6.9514,-6.9522,-6.9678,-6.9675,-6.9459,-6.9463,-6.9465,-6.9467,0,0,0,0,0,0,0,-6.9786,-6.979,-6.986,-6.9757,-6.9739,-6.9668,-6.9657,-6.9752,-6.9614,-6.9589,-6.9568,-6.9562,-6.9506,-6.9517,-6.9518,-6.9674,-6.9458,-6.9464,-6.9468,-6.9471,-7.0023,-7.0033,0,0,0,0,0,0,-6.9807,-6.9792,-6.9862,-6.9857,-6.9732,-6.9678,-6.9665,-6.9695,-6.9612,-6.9589,-6.9571,-6.9549,-6.951,-6.9511,-6.9515,-6.9791,-6.9465,-6.9472,-6.9475,-7.0012,-7.0025,-7.0036,0,0,0,0,0,0,-6.9806,-6.9816,-6.9865,-6.9819,-6.982,-6.9691,-6.9727,-6.9699,-6.9709,-6.9598,-6.9573,-6.9607,-6.9502,-6.9505,-6.9641,-6.9785,-6.9474,-6.948,-6.9999,-7.0016,-7.0031,-7.0348,0,0,0,0,0,0,-6.9805,-6.9818,-6.9907,-6.9823,-6.9823,-6.9992,-6.9736,-6.9705,-6.9721,-6.9691,-6.9625,-6.9605,-6.9495,-6.9632,-6.9647,-6.9788,-6.9486,-6.9986,-7.0007,-7.0026,-7.0324,-7.0373,-7.0415,0,0,0,0,0,-6.9802,-7.0002,-6.9913,-6.9924,-6.9932,-7.0,-7.0,-6.9868,-6.9734,-6.9823,-6.9752,-6.9607,-6.9768,-6.9649,-6.9663,-6.9808,-6.9976,-7.0001,-7.0024,-7.0304,-7.0364,-7.0414,0,0,0,0,0,0,-7.011,-6.9988,-6.9888,-7.0067,-7.0046,-6.9951,-7.0059,-6.9936,-6.9954,-6.9926,-6.9762,-6.975,-6.9909,-6.9872,-6.9742,-7.0038,-6.9847,-6.9876,-7.0055,-7.0111,-7.0156,-7.016,-6.9491,0,0,0,0,0,-7.0198,-7.0261,-7.0152,-7.0321,-7.0315,-7.019,-7.0215,-7.0114,-7.0086,-7.0077,-7.0014,-6.9996,-7.0041,-7.0074,-7.011,-7.0319,-7.0299,-7.0426,-7.0471,-7.0509,-7.0534,-7.064,-7.0694,-7.0115,-7.0115,-7.0115,0,0,-7.0382,-7.0323,-7.0373,-7.0381,-7.0352,-7.0422,-7.0184,-7.0269,-7.032,-7.009,-7.0212,-7.0167,-7.0135,-7.0307,-7.038,-7.0282,-7.069,-7.054,-7.0571,-7.0575,-7.067,-7.0725,-7.0774,-7.0132,-7.0129,-7.0126,0,0,-7.075,-7.0714,-7.0847,-7.0824,-7.0782,-7.0698,-7.0731,-7.0655,-7.0614,-7.0734,-7.0563,-7.0623,-7.0705,-7.0688,-7.0691,-7.1054,-7.0921,-7.1071,-7.1307,-7.1412,-7.1457,-7.1497,-7.1624,-7.1672,-7.1097,-7.1098,-7.1099,0,-7.0984,-7.108,-7.0933,-7.1028,-7.1036,-7.0829,-7.0964,-7.0949,-7.0924,-7.0935,-7.0825,-7.0923,-7.0887,-7.1051,-7.114,-7.115,-7.1182,-7.1076,-7.1462,-7.15,-7.1535,-7.1654,-7.1703,-7.1116,-7.1114,-7.1112,-7.1111,0,-7.1368,-7.1438,-7.1552,-7.1528,-7.155,-7.1665,-7.1537,-7.1577,-7.1475,-7.1404,-7.1528,-7.1478,-7.1499,-7.1531,-7.1435,-7.1683,-7.1622,-7.1491,-7.1295,-7.1611,-7.172,-7.1765,-7.1142,-7.1136,-7.113,-7.1126,0,0,-7.1927,-7.182,-7.1864,-7.1849,-7.1789,-7.1841,-7.1949,-7.1966,-7.2002,-7.1994,-7.2078,-7.2153,-7.2029,-7.2033,-7.1932,-7.2025,-7.2313,-7.1881,-7.1877,-7.196,-7.2581,-7.2678,-7.2734,-7.2226,-7.2234,-7.2241,-7.2583,0,-7.2275,-7.2446,-7.2317,-7.2512,-7.2574,-7.2379,-7.2471,-7.2446,-7.2383,-7.2428,-7.2358,-7.2412,-7.2247,-7.2247,-7.233,-7.2261,-7.2435,-7.2235,-7.2303,-7.2307,-7.2313,-7.2791,-7.2894,-7.3219,-7.2625,-7.2632,-7.2637,0,-7.2703,-7.2709,-7.291,-7.2834,-7.2855,-7.2941,-7.2945,-7.2991,-7.2959,-7.2906,-7.291,-7.2785,-7.2886,-7.2697,-7.2833,-7.2699,-7.272,-7.2691,-7.27,-7.2699,-7.2489,-7.28,-7.3319,-7.3368,-7.2704,-7.2698,-7.2693,0,-7.3087,-7.3145,-7.3271,-7.3266,-7.3183,-7.3247,-7.3216,-7.3173,-7.3191,-7.3198,-7.3208,-7.3228,-7.3239,-7.3258,-7.3142,-7.3016,-7.3294,-7.3095,-7.3252,-7.3256,-7.3316,-7.3314,-7.3844,-7.3337,-7.3337,-7.3336,-7.3335,0,-7.3487,-7.3617,-7.3441,-7.352,-7.3659,-7.3511,-7.3654,-7.3603,-7.3567,-7.3632,-7.3468,-7.3534,-7.3378,-7.3429,-7.334,-7.3465,-7.3472,-7.3433,-7.3407,-7.3445,-7.345,-7.3454,-7.3428,-7.3348,-7.3345,-7.3343,-7.3341,0,-7.3937,-7.3825,-7.3949,-7.386,-7.384,-7.3947,-7.3871,-7.394,-7.3865,-7.3951,-7.3962,-7.3847,-7.3897,-7.3784,-7.3821,-7.376,-7.3938,-7.3878,-7.3948,-7.3928,-7.4091,-7.4076,-7.464,-7.4705,-7.4161,-7.4166,-7.4171,0,-7.4198,-7.4292,-7.4212,-7.4242,-7.4218,-7.4271,-7.4287,-7.4147,-7.4172,-7.4142,-7.4215,-7.4251,-7.4272,-7.4363,-7.4283,-7.431,-7.4248,-7.4444,-7.4251,-7.4286,-7.4247,-7.4241,-7.4249,-7.4483,-7.4489,-7.4495,-7.4499,0,-7.4672,-7.4611,-7.464,-7.4651,-7.4675,-7.4678,-7.4669,-7.4705,-7.4554,-7.4592,-7.4639,-7.4656,-7.4691,-7.4729,-7.4737,-7.4707,-7.458,-7.4561,-7.4598,-7.4637,-7.4672,-7.4652,-7.4053,-7.4548,-7.4543,-7.4539,-7.4537,-7.4535,-7.5032,-7.5106,-7.5059,-7.5098,-7.5076,-7.5071,-7.513,-7.5062,-7.5099,-7.5113,-7.503,-7.5096,-7.5062,-7.5059,-7.5043,-7.5094,-7.5005,-7.506,-7.5073,-7.5088,-7.5113,-7.4667,-7.5096,-7.5094,-7.5093,-7.5091,-7.509,0,-7.5494,-7.5454,-7.5491,-7.5481,-7.5512,-7.5387,-7.5371,-7.5405,-7.5464,-7.5442,-7.5465,-7.5521,-7.5557,-7.5481,-7.5506,-7.5561,-7.5504,-7.5573,-7.5565,-7.556,-7.5192,-7.5156,-7.5619,-7.5619,-7.5619,-7.5619,-7.5618,-7.5618,-7.5738,-7.5854,-7.5789,-7.5894,-7.5854,-7.5915,-7.5916,-7.5912,-7.5892,-7.596,-7.5988,-7.5937,-7.5893,-7.5913,-7.5942,-7.5919,-7.5935,-7.6024,-7.5981,-7.5638,-7.5586,-7.5537,-7.5501,-7.6029,-7.603,-7.6343,-7.6346,-7.6348]},{"header":{"parameterUnit":"m.s-1","parameterCategory":1,"la1":30.2991,"la2":30.254,"lo1":-89.0895,"lo2":-89.0444,"dy":0.0017,"dx":0.0017,"nx":28,"ny":28,"refTime":"2024-06-20T03:00:00:Z","depth":0,"parameterNumber":3,"parameterNumberName":"V-component_of_WINDS"},"data":[0,0,0,0,0,0,0,0,0,0,0,0,0,0,0,0,0,0,0,0,0,0,0,0,0,0,0,0,0,0,0,0,0,0,0,0,0,0,0,0,0,0,0,0,0,0,0,0,0,0,0,0,0,0,0,0,0,0,-0.1264,-0.1264,0,-0.1282,-0.1282,-0.1283,-0.1338,-0.1339,-0.134,-0.1342,-0.1359,-0.1359,-0.1358,0,0,0,0,0,0,0,0,0,0,0,0,0,-0.1273,-0.1273,-0.1264,-0.1264,-0.1264,-0.1282,-0.1282,-0.1283,-0.1338,-0.1339,-0.1341,-0.1342,-0.136,-0.1359,-0.1358,0,0,0,0,0,0,0,0,0,0,0,0,0,-0.1278,-0.1273,-0.1264,-0.1294,-0.1297,-0.1282,-0.1282,-0.1283,-0.1337,-0.1339,-0.1341,-0.1343,-0.136,-0.1359,-0.1358,-0.1315,0,0,-0.1355,-0.1354,0,0,0,0,0,0,0,0,-0.1278,-0.1278,-0.1289,-0.1292,-0.1295,-0.131,-0.1292,-0.1294,-0.1337,-0.1322,-0.1342,-0.1344,-0.1341,-0.1342,-0.1341,-0.1316,-0.1317,-0.1355,-0.1354,-0.1354,-0.1353,0,0,0,0,0,0,0,-0.1277,-0.1277,-0.1271,-0.1289,-0.1293,-0.1305,-0.1308,-0.1293,-0.1321,-0.1323,-0.1327,-0.1329,-0.1343,-0.1342,-0.1342,-0.1317,-0.1355,-0.1354,-0.1353,-0.1353,-0.1254,-0.1253,0,0,0,0,0,0,-0.1273,-0.1277,-0.1271,-0.1272,-0.1291,-0.1304,-0.1307,-0.1303,-0.1321,-0.1326,-0.1327,-0.1331,-0.1343,-0.1343,-0.1343,-0.1292,-0.1354,-0.1353,-0.1352,-0.1256,-0.1254,-0.1252,0,0,0,0,0,0,-0.1273,-0.1272,-0.127,-0.1275,-0.1276,-0.1302,-0.1297,-0.1302,-0.1302,-0.1324,-0.133,-0.1321,-0.1344,-0.1344,-0.1321,-0.1294,-0.1352,-0.1351,-0.1259,-0.1256,-0.1253,-0.1192,0,0,0,0,0,0,-0.1273,-0.1272,-0.1257,-0.1274,-0.1275,-0.1248,-0.1295,-0.1302,-0.13,-0.1305,-0.132,-0.1324,-0.1346,-0.1322,-0.132,-0.1294,-0.1351,-0.1261,-0.1257,-0.1254,-0.1196,-0.1187,-0.1179,0,0,0,0,0,-0.1273,-0.1239,-0.1256,-0.1255,-0.1257,-0.1247,-0.1247,-0.1273,-0.1297,-0.1282,-0.1296,-0.1324,-0.1297,-0.1319,-0.1317,-0.129,-0.1263,-0.1259,-0.1254,-0.12,-0.1189,-0.1179,0,0,0,0,0,0,-0.1218,-0.1242,-0.1261,-0.1232,-0.1236,-0.1256,-0.1237,-0.1261,-0.1259,-0.1264,-0.1295,-0.1298,-0.127,-0.1278,-0.1302,-0.1248,-0.1285,-0.1279,-0.1244,-0.1234,-0.1225,-0.1224,-0.135,0,0,0,0,0,-0.1202,-0.1192,-0.1214,-0.1186,-0.1187,-0.1211,-0.1208,-0.1227,-0.1234,-0.1236,-0.1249,-0.1253,-0.1246,-0.124,-0.1235,-0.1198,-0.1201,-0.1178,-0.1169,-0.1162,-0.1157,-0.1135,-0.1125,-0.1237,-0.1237,-0.1237,0,0,-0.117,-0.1182,-0.1174,-0.1175,-0.1181,-0.1169,-0.1213,-0.1199,-0.119,-0.1234,-0.1212,-0.1221,-0.1228,-0.1197,-0.1184,-0.1203,-0.1126,-0.1156,-0.115,-0.1149,-0.113,-0.1119,-0.1109,-0.1234,-0.1234,-0.1235,0,0,-0.1104,-0.1113,-0.109,-0.1094,-0.1103,-0.1119,-0.1113,-0.1128,-0.1136,-0.1115,-0.1147,-0.1136,-0.1123,-0.1126,-0.1126,-0.1058,-0.1082,-0.1055,-0.101,-0.0989,-0.098,-0.0972,-0.0946,-0.0937,-0.105,-0.105,-0.105,0,-0.1063,-0.1047,-0.1075,-0.1058,-0.1056,-0.1095,-0.107,-0.1073,-0.1079,-0.1077,-0.1098,-0.108,-0.1088,-0.1057,-0.104,-0.1039,-0.1032,-0.1054,-0.0979,-0.0971,-0.0965,-0.094,-0.0931,-0.1046,-0.1047,-0.1047,-0.1048,0,-0.0994,-0.0982,-0.0962,-0.0966,-0.0962,-0.0942,-0.0965,-0.0958,-0.0977,-0.099,-0.0966,-0.0976,-0.0972,-0.0966,-0.0985,-0.0937,-0.0948,-0.0973,-0.101,-0.095,-0.0927,-0.0919,-0.1041,-0.1043,-0.1044,-0.1045,0,0,-0.0896,-0.0914,-0.0906,-0.0907,-0.0918,-0.0909,-0.0889,-0.0885,-0.0877,-0.0879,-0.0862,-0.0849,-0.0871,-0.0871,-0.089,-0.0871,-0.0814,-0.0898,-0.0899,-0.0881,-0.076,-0.074,-0.0729,-0.083,-0.0829,-0.0828,-0.0758,0,-0.0833,-0.08,-0.0824,-0.0787,-0.0774,-0.0809,-0.0791,-0.0795,-0.0806,-0.0797,-0.0809,-0.0798,-0.083,-0.0829,-0.0813,-0.0825,-0.079,-0.083,-0.0814,-0.0813,-0.081,-0.0717,-0.0697,-0.0632,-0.075,-0.0749,-0.0748,0,-0.0756,-0.0753,-0.0715,-0.0726,-0.0721,-0.0705,-0.0702,-0.0693,-0.0697,-0.0706,-0.0704,-0.0727,-0.0706,-0.0742,-0.0713,-0.074,-0.0734,-0.0739,-0.0737,-0.0736,-0.0776,-0.0713,-0.0612,-0.0601,-0.0734,-0.0735,-0.0736,0,-0.0686,-0.0673,-0.0648,-0.0648,-0.066,-0.0648,-0.0652,-0.0658,-0.0653,-0.065,-0.0647,-0.0641,-0.0638,-0.0632,-0.0652,-0.0677,-0.062,-0.0658,-0.0626,-0.0625,-0.0612,-0.0612,-0.0507,-0.061,-0.061,-0.061,-0.061,0,-0.0612,-0.0587,-0.0616,-0.0601,-0.0572,-0.0598,-0.0569,-0.0577,-0.0582,-0.0567,-0.0597,-0.0583,-0.0611,-0.0598,-0.0614,-0.0586,-0.0585,-0.059,-0.0595,-0.0587,-0.0586,-0.0584,-0.0589,-0.0607,-0.0608,-0.0608,-0.0609,0,-0.053,-0.0549,-0.0523,-0.0536,-0.0539,-0.0517,-0.0528,-0.0513,-0.0525,-0.0506,-0.0503,-0.0522,-0.0509,-0.0528,-0.0518,-0.0528,-0.0489,-0.0501,-0.0488,-0.0491,-0.0457,-0.0459,-0.0346,-0.0331,-0.0443,-0.0442,-0.0441,0,-0.0482,-0.0463,-0.0473,-0.0466,-0.0468,-0.0456,-0.045,-0.0474,-0.0467,-0.0469,-0.0453,-0.0443,-0.0436,-0.0413,-0.0425,-0.0416,-0.0427,-0.0388,-0.0426,-0.0418,-0.0425,-0.0425,-0.0423,-0.038,-0.0379,-0.0377,-0.0377,0,-0.0393,-0.0403,-0.0394,-0.0388,-0.0381,-0.0377,-0.0376,-0.0367,-0.0392,-0.0383,-0.0369,-0.0363,-0.0352,-0.034,-0.0334,-0.0337,-0.036,-0.0364,-0.0356,-0.0348,-0.034,-0.0342,-0.0465,-0.0367,-0.0368,-0.0369,-0.0369,-0.0369,-0.0326,-0.031,-0.0314,-0.0302,-0.0303,-0.0301,-0.0287,-0.0296,-0.0286,-0.0278,-0.0292,-0.0275,-0.0277,-0.0271,-0.0272,-0.0257,-0.0275,-0.0263,-0.026,-0.0256,-0.025,-0.0343,-0.0257,-0.0257,-0.0257,-0.0257,-0.0258,0,-0.0238,-0.0242,-0.0231,-0.0227,-0.0217,-0.024,-0.0238,-0.0229,-0.0213,-0.0213,-0.0205,-0.0188,-0.0176,-0.0186,-0.0176,-0.0163,-0.0173,-0.0159,-0.016,-0.016,-0.0236,-0.0244,-0.0151,-0.0151,-0.0151,-0.0151,-0.0151,-0.0151,-0.0191,-0.0164,-0.0173,-0.0146,-0.015,-0.0133,-0.013,-0.0127,-0.0127,-0.0107,-0.0097,-0.0104,-0.0107,-0.0097,-0.0087,-0.009,-0.0084,-0.0066,-0.0073,-0.0144,-0.0155,-0.0165,-0.0172,-0.0065,-0.0065,0.0002,0.0003,0.0004]}]]